Torna al catalogo

CZ-3B DEB

LostHEO
NORAD 40159·DEBRIS·🇨🇳 China

Lanciato Sep 4, 2010 da Xichang Satellite Launch Center

Loading…

Prossimi Passaggi (prossime 24 ore)

TLE

ObsoletoSource: Space-Track

Epoca: Feb 18, 2026, 23:24 UTC

1 40159U 10042L   26049.97521708  .00007611  00000-0  73008-2 0  9991
2 40159  26.9874  41.4139 6970695 231.3711  43.1888  2.62871057101270

Traccia CZ-3B DEB in tempo reale con AllMySat

Download on the App Store